Regional Weather Roundup
Issued by NWS

Home | Current Version | Previous Version | Text Only | Print | Product List | Glossary On
Versions: 1 2 3 4 5 6 7 8 9 10 11 12 13 14 15 16 17 18 19 20 21 22 23 24 25 26 27 28 29 30 31 32 33 34 35 36 37 38 39 40 41 42 43 44 45 46 47 48 49 50
000
ASUS43 KLMK 030910
RWRKY
KENTUCKY REGIONAL WEATHER ROUNDUP
NATIONAL WEATHER SERVICE LOUISVILLE KY
500 AM EDT TUE MAY 03 2016

NOTE "FAIR" INDICATES FEW OR NO CLOUDS BELOW 12,000 FEET
WITH NO SIGNIFICANT WEATHER AND/OR OBSTRUCTIONS TO VISIBILITY.

KYZ001>023-026-027-061>063-070>075-031000-
WESTERN AND SOUTH CENTRAL KENTUCKY

CITY           SKY/WX    TMP DP  RH WIND       PRES   REMARKS
PADUCAH        CLOUDY    54  49  83 NW3       29.97S
HENDERSON      CLOUDY    54  46  76 NW6       29.95S
OWENSBORO      CLEAR     53  51  93 NW8       29.95S
HOPKINSVILLE   CLOUDY    54  50  86 NW6       29.96S
BOWLING GREEN  CLOUDY    56  50  80 NW5       29.94S
GLASGOW        CLOUDY    54  54 100 CALM      29.94R
$$

KYZ024-025-028>034-038-045-046-053-031000-
NORTH CENTRAL KENTUCKY

CITY           SKY/WX    TMP DP  RH WIND       PRES   REMARKS
LOUISVILLE/SDF CLOUDY    55  49  80 NW10      29.92S
LOUISVILLE/LOU CLOUDY    55  49  80 NW7       29.93R
FORT KNOX      MOCLDY    52  50  93 W7        29.91S
$$

KYZ035>037-039>044-047>052-055>060-089>105-031000-
NORTHEAST KENTUCKY

CITY           SKY/WX    TMP DP  RH WIND       PRES   REMARKS
LEXINGTON      CLOUDY    54  51  90 W3        29.91S
COVINGTON      CLOUDY    54  52  93 NW5       29.90S
FRANKFORT      CLOUDY    55  49  80 CALM      29.90S
$$

KYZ054-064>069-076>088-106>120-031000-
SOUTHEAST KENTUCKY

CITY           SKY/WX    TMP DP  RH WIND       PRES   REMARKS
JACKSON        LGT RAIN  56  54  93 W3        29.90R FOG
LONDON         CLOUDY    57  56  96 NW3       29.90R
SOMERSET       CLOUDY    54  54 100 N6        29.93R
MIDDLESBORO    CLOUDY    58  58 100 CALM      29.89F
MONTICELLO     LGT RAIN  57  55  94 N17       29.93S
$$





USA.gov is the U.S. government's official web portal to all federal, state and local government web resources and services.